TimeEDT,TemperatureF,Dew PointF,Humidity,Sea Level PressureIn,VisibilityMPH,Wind Direction,Wind SpeedMPH,Gust SpeedMPH,PrecipitationIn,Events,Conditions,WindDirDegrees,DateUTC
12:15 AM,56.8,54.0,90,29.97,5.0,NE,3.5,-,N/A,,Drizzle,50,2012-10-04 04:15:00
12:34 AM,57.2,54.3,90,29.97,3.0,NE,3.5,-,N/A,Rain,Rain,50,2012-10-04 04:34:00
12:55 AM,56.3,53.4,90,29.96,3.0,East,3.5,-,N/A,Rain,Rain,90,2012-10-04 04:55:00
1:15 AM,56.3,53.6,91,29.96,4.0,Calm,Calm,-,N/A,,Heavy Drizzle,0,2012-10-04 05:15:00
1:35 AM,56.5,53.8,91,29.96,2.5,Calm,Calm,-,N/A,Rain,Heavy Rain,0,2012-10-04 05:35:00
1:55 AM,56.3,53.6,91,29.96,4.0,Calm,Calm,-,N/A,Rain,Light Rain,0,2012-10-04 05:55:00
2:15 AM,56.5,53.8,91,29.96,4.0,Calm,Calm,-,N/A,Rain,Rain,0,2012-10-04 06:15:00
2:35 AM,58.5,55.8,91,29.95,5.0,Calm,Calm,-,N/A,,Drizzle,0,2012-10-04 06:35:00
2:55 AM,58.5,55.8,91,29.95,7.0,SSW,4.6,-,N/A,Rain,Light Rain,210,2012-10-04 06:55:00
3:15 AM,57.2,54.5,91,29.94,10.0,SSW,5.8,-,N/A,,Drizzle,210,2012-10-04 07:15:00
3:35 AM,57.0,54.3,91,29.94,7.0,SW,4.6,-,N/A,,Drizzle,220,2012-10-04 07:35:00
3:55 AM,57.4,54.5,90,29.93,7.0,SSW,3.5,-,N/A,,Drizzle,210,2012-10-04 07:55:00
4:15 AM,57.4,54.3,90,29.93,7.0,SSW,5.8,-,N/A,,Drizzle,210,2012-10-04 08:15:00
4:35 AM,56.8,54.0,90,29.93,7.0,SSW,4.6,-,N/A,,Heavy Drizzle,210,2012-10-04 08:35:00
4:55 AM,56.7,53.8,90,29.92,4.0,SSW,5.8,-,N/A,,Heavy Drizzle,210,2012-10-04 08:55:00
5:14 AM,56.5,53.6,90,29.92,3.0,SSW,6.9,-,N/A,,Heavy Drizzle,210,2012-10-04 09:14:00
5:35 AM,56.5,53.6,90,29.92,4.0,SW,6.9,-,N/A,Rain,Heavy Rain,220,2012-10-04 09:35:00
5:55 AM,56.7,53.8,90,29.92,3.0,SW,4.6,-,N/A,,Heavy Drizzle,230,2012-10-04 09:55:00
6:14 AM,56.7,54.0,91,29.92,3.0,WSW,3.5,-,N/A,,Heavy Drizzle,250,2012-10-04 10:14:00
6:35 AM,56.8,54.1,91,29.92,4.0,SW,5.8,-,N/A,,Light Drizzle,230,2012-10-04 10:35:00
6:55 AM,57.0,54.3,91,29.92,5.0,WSW,4.6,-,N/A,Rain,Rain,240,2012-10-04 10:55:00
7:14 AM,57.0,54.1,90,29.92,4.0,WSW,3.5,-,N/A,Rain,Rain,240,2012-10-04 11:14:00
7:35 AM,56.7,54.0,91,29.92,5.0,Calm,Calm,-,N/A,Rain,Rain,0,2012-10-04 11:35:00
7:55 AM,57.9,55.0,90,29.92,7.0,Calm,Calm,-,N/A,,Drizzle,0,2012-10-04 11:55:00
8:14 AM,57.2,54.3,90,29.93,5.0,Calm,Calm,-,N/A,Rain,Rain,0,2012-10-04 12:14:00
8:35 AM,56.8,54.1,91,29.92,4.0,Calm,Calm,-,N/A,,Overcast,0,2012-10-04 12:35:00
8:55 AM,58.1,55.4,91,29.92,5.0,Calm,Calm,-,N/A,,Overcast,0,2012-10-04 12:55:00
9:15 AM,57.9,55.2,91,29.92,10.0,Calm,Calm,-,N/A,,Overcast,0,2012-10-04 13:15:00
9:35 AM,58.5,55.4,90,29.92,10.0,Calm,Calm,-,N/A,,Overcast,0,2012-10-04 13:35:00
9:55 AM,58.5,54.7,87,29.93,10.0,Calm,Calm,-,N/A,,Overcast,0,2012-10-04 13:55:00
10:15 AM,58.5,54.5,87,29.93,10.0,Calm,Calm,-,N/A,,Overcast,0,2012-10-04 14:15:00
10:35 AM,58.5,54.7,87,29.93,10.0,Calm,Calm,-,N/A,,Overcast,0,2012-10-04 14:35:00
10:55 AM,58.5,54.9,88,29.93,10.0,Calm,Calm,-,N/A,,Overcast,0,2012-10-04 14:55:00
11:15 AM,59.0,55.4,88,29.93,10.0,Calm,Calm,-,N/A,,Overcast,0,2012-10-04 15:15:00
11:35 AM,59.2,55.0,86,29.93,10.0,Calm,Calm,-,N/A,,Overcast,0,2012-10-04 15:35:00
11:55 AM,61.0,56.1,84,29.93,10.0,SW,5.8,-,N/A,,Mostly Cloudy,230,2012-10-04 15:55:00
12:15 PM,61.2,55.4,81,29.92,10.0,WSW,3.5,-,N/A,,Scattered Clouds,250,2012-10-04 16:15:00
12:35 PM,61.7,55.4,80,29.92,10.0,WSW,4.6,-,N/A,,Scattered Clouds,240,2012-10-04 16:35:00
12:55 PM,63.5,56.3,77,29.92,10.0,SW,4.6,-,N/A,,Clear,230,2012-10-04 16:55:00
1:15 PM,64.6,56.8,76,29.91,10.0,Calm,Calm,-,N/A,,Clear,0,2012-10-04 17:15:00
1:35 PM,65.5,57.2,75,29.91,10.0,Calm,Calm,-,N/A,,Clear,0,2012-10-04 17:35:00
1:54 PM,64.6,55.4,72,29.89,10.0,Calm,Calm,-,N/A,,Clear,0,2012-10-04 17:54:00
2:15 PM,67.5,56.1,67,29.88,10.0,SW,3.5,-,N/A,,Clear,220,2012-10-04 18:15:00
2:35 PM,68.5,56.5,65,29.88,10.0,SW,3.5,-,N/A,,Clear,230,2012-10-04 18:35:00
2:54 PM,68.5,55.8,64,29.87,10.0,SW,3.5,-,N/A,,Clear,220,2012-10-04 18:54:00
3:15 PM,68.5,54.3,60,29.87,10.0,Calm,Calm,-,N/A,,Clear,0,2012-10-04 19:15:00
3:35 PM,69.1,53.6,58,29.86,10.0,SW,4.6,-,N/A,,Scattered Clouds,220,2012-10-04 19:35:00
3:54 PM,71.1,54.3,55,29.85,10.0,SW,5.8,-,N/A,,Scattered Clouds,230,2012-10-04 19:54:00
4:15 PM,70.3,53.1,54,29.84,10.0,SW,5.8,-,N/A,,Clear,220,2012-10-04 20:15:00
4:35 PM,71.1,52.9,53,29.83,10.0,SSW,4.6,-,N/A,,Clear,210,2012-10-04 20:35:00
4:55 PM,70.3,51.3,51,29.84,10.0,SSW,9.2,20.7,N/A,,Clear,210,2012-10-04 20:55:00
5:15 PM,68.5,52.0,55,29.84,10.0,SSW,6.9,-,N/A,,Mostly Cloudy,210,2012-10-04 21:15:00
5:35 PM,68.5,54.0,60,29.85,10.0,SW,5.8,-,N/A,,Overcast,220,2012-10-04 21:35:00
5:55 PM,68.5,53.8,59,29.85,10.0,SW,6.9,-,N/A,,Mostly Cloudy,220,2012-10-04 21:55:00
6:15 PM,68.5,54.5,61,29.84,10.0,SSW,6.9,-,N/A,,Overcast,210,2012-10-04 22:15:00
6:35 PM,68.5,54.3,60,29.84,10.0,SW,8.1,-,N/A,,Mostly Cloudy,220,2012-10-04 22:35:00
6:55 PM,68.5,52.7,57,29.83,10.0,SW,10.4,18.4,N/A,,Overcast,220,2012-10-04 22:55:00
7:15 PM,68.5,53.6,59,29.83,10.0,SW,9.2,-,N/A,,Overcast,220,2012-10-04 23:15:00
7:35 PM,68.5,53.1,58,29.83,10.0,SW,16.1,28.8,N/A,,Overcast,220,2012-10-04 23:35:00
7:55 PM,68.5,53.8,59,29.82,10.0,SSW,12.7,19.6,N/A,,Overcast,210,2012-10-04 23:55:00
8:15 PM,68.5,54.7,61,29.82,10.0,SSW,10.4,20.7,N/A,,Mostly Cloudy,210,2012-10-05 00:15:00
8:35 PM,66.4,53.2,63,29.83,10.0,SW,12.7,23.0,N/A,,Mostly Cloudy,230,2012-10-05 00:35:00
8:55 PM,66.2,54.1,65,29.83,10.0,WSW,11.5,17.3,N/A,,Overcast,240,2012-10-05 00:55:00
10:15 PM,61.5,49.3,64,29.84,10.0,WSW,18.4,26.5,N/A,,Scattered Clouds,240,2012-10-05 02:15:00
10:34 PM,61.0,46.2,58,29.84,10.0,WSW,17.3,27.6,N/A,,Clear,240,2012-10-05 02:34:00
10:55 PM,61.0,45.7,57,29.84,10.0,WSW,17.3,25.3,N/A,,Clear,240,2012-10-05 02:55:00
11:15 PM,60.1,45.3,58,29.85,10.0,WSW,17.3,28.8,N/A,,Clear,240,2012-10-05 03:15:00
11:34 PM,59.9,45.5,59,29.85,10.0,WSW,16.1,26.5,N/A,,Clear,240,2012-10-05 03:34:00
11:55 PM,58.5,43.2,57,29.85,10.0,West,13.8,20.7,N/A,,Scattered Clouds,260,2012-10-05 03:55:00